OBJECT AA, 42849

Orbit data source: Space-Track

You're viewing an Uncataloged Satellite

Recently launched and/or uncataloged satellites may have evolving metadata. Metadata may include but not limited to: Owner, Maufacturer, Bus, Motor, and Mission.

OBJECT AA, 42849 is a satellite in SSO that was launched on Fri, 14 Jul 2017 UTC via a SOYUZ-2-1A launch vehicle from the Tyuratam Missile And Space Complex (TTMTR). Unknown objects in Earth's orbit typically refer to objects detected orbiting the Earth but have not yet been identified or cataloged. These objects could be anything from previously untracked satellites, spent rocket stages, debris from satellite collisions, or even natural meteoroids temporarily captured by Earth's gravity.

Loading next visibility...
Identifier
42849, 2017-042AA
Orbit
SSO
Country
Flag of TBDTBD
Related business
None
Manufacturer
Tyvak NSS
Mission
Non-operational Commercial Meteo Radio Occ.
Bus & Motor
CUBESAT 6U, Unknown motor
Mass
10 kg wet, 10 kg dry
Launch date (UTC)
2017-07-14 (8 years ago)
Launch vehicle
SOYUZ-2-1A
Launch site
Tyuratam Missile And Space Complex (TTMTR)
Object type
Unknown
Shape & HBR
Box + 2 Pan, 0.3 m
Radar Cross Section
0.079 m², Medium (>0.1 m² and < 1m²)

Expand to show TLE details & history
Last TLE update: 17 hours ago

TLE from 17 hours ago
0 OBJECT AA
1 42849U 17042AA  25242.43440015  .00006592  00000-0  47186-3 0  9998
2 42849  97.4021  54.2239 0011990  23.5160 336.6613 15.04676407443441
Epoch: 2025-08-30T10:25Z
TLE epoch observation values (Epoch: 2025-08-30T10:25:32.172Z)
Latitude
-0.00002°
Longitude
-81.0289°
Altitude
547.939 km
Speed
7.592 km/s
True Right ascension
03h 36m 53s
True Declination
0° 00' 00"
Sunlit
Object was in daylight at epoch
Visualization orbit readout
Latitude
Unknown
Longitude
Unknown
Altitude
Unknown
Speed
Unknown
Apparent Right ascension
Unknown
Apparent Declination
Unknown
Sunlit
N/A
Visualization observer readout
Local Sidereal Time
19:00:24
Azimuth
Unknown
Elevation
Unknown
Doppler factor
Unknown
Orbital elements
Apogee altitude
557.792 km
Perigee altitude
541.179 km
Semi-major axis
6,927.622 km
Eccentricity
0.0012
Inclination
97.4021°
RAAN
54.2239°
Arg. of periapsis
23.516°
True anomaly
336.60679°
Mean anomaly
336.6613°
Eccentric anomaly
336.63405°
Mean motion
3.76415 °/min
Orbital period
95.64 mins
BSTAR
0.00047186
Loading maneuver chart data...
Computing Atmospheric mass density...

Documentation

Showing up to 5 results
|